Retour au catalogue

SKYNET 4F

ActifMilitaireGEO
NORAD 26695·PAYLOAD·🇬🇧 United Kingdom

Lancé Feb 7, 2001 depuis Guiana Space Centre

Loading…

TLE

FraisSource: Space-Track

Époque: Sep 13, 2026, 19:34 UTC

1 26695U 01005B   26256.81572609 -.00000254  00000-0  00000-0 0  9995
2 26695  12.2184  17.8986 0006685 216.1654 173.2368  0.99148975 93494

Suivez SKYNET 4F en temps réel avec AllMySat

Download on the App Store